Weather in Ibri

Oman     23°12′54″N   56°29′35″E
temp.,
°C
wind,
m/s
gust,
m/s
humid.,
%
clouds,
%
prec.,
mm/h
press.,
hPa
HPBL,
m
19 may, wed
wed1901:00+33se451510 0.0 100556
04:00+29sse33195 0.0 100524
07:00+31ese23170 0.0 1007142
10:00+37sw23110 0.0 1006977
13:00+41wnw3390 0.0 10044122
16:00+42w5671 0.0 10024362
19:00+39nnw23953 0.0 100330
22:00+35n22105 0.0 100411
20 may, thu
thu2001:00+32e57170 0.0 100473
04:00+30sse45210 0.0 100560
07:00+31se44190 0.0 1007203
10:00+37ssw32120 0.0 1007745
13:00+42nw4380 0.0 10053036
16:00+43w5665 0.0 10024141
19:00+39nw3385 0.0 100329
22:00+35nw23110 0.0 100420
21 may, fri
fri2101:00+33nne22120 0.0 100311
04:00+31ene11130 0.0 100411
07:00+34s11110 0.0 100652
10:00+40nw3480 0.0 1006856
13:00+44w4550 0.0 10035399
16:00+45nne65594 0.0 10015775
19:00+40ne91475 0.0 1002316
22:00+35nw57115 0.0 100484
22 may, sat
sat2201:00+34nne33121 0.0 100315
04:00+32ne23120 0.0 100311
07:00+35nne37100 0.0 1005175
10:00+43ne6560 0.0 10042401
13:00+45ne4450 0.0 10025272
16:00+44ne9663 0.0 10004980
19:00+38ne914100 0.0 1001298
22:00+35ene471495 0.0 100378
23 may, sun
sun2301:00+33ese44210 0.0 100341
04:00+30sse11240 0.0 100312
07:00+34ene12150 0.0 100574
10:00+40s11100 0.0 10051184
13:00+43wsw2370 0.0 10024747
16:00+44wsw45698 0.0 10005446
19:00+41ene35916 0.0 100271
22:00+35ne22133 0.0 100411